Regional Weather Roundup
Issued by NWS Charleston, SC

Current Version | Previous Version | Graphics & Text | Print | Product List | Glossary On
Versions: 1 2 3 4 5 6 7 8 9 10 11 12 13 14 15 16 17 18 19 20 21 22 23 24 25 26 27 28 29 30 31 32 33 34 35 36 37 38 39 40 41 42 43 44 45 46 47 48 49 50
000
ASUS42 KCHS 161225
RWRCHS

REGIONAL WEATHER ROUNDUP
NATIONAL WEATHER SERVICE CHARLESTON SC
800 AM EDT WED APR 16 2014

NOTE: "FAIR" INDICATES FEW OR NO CLOUDS BELOW 12,000 FEET WITH NO
SIGNIFICANT WEATHER AND/OR OBSTRUCTIONS TO VISIBILITY.

NOT ALL STATIONS ARE QUALITY CONTROLLED BY THE NATIONAL
WEATHER SERVICE. USE DATA WITH CAUTION...ESPECIALLY
DEWPOINT OBSERVATIONS.

SCZ027-030-031-034>040-042>050-161300-
...SOUTH CAROLINA...

CITY           SKY/WX    TMP DP  RH WIND       PRES   REMARKS
N CHARLESTON   MOSUNNY   43  28  55 N15G22    30.25R
6HR MIN TEMP:  42; 6HR MAX TEMP:  51;

WATERFRONT PRK   N/A     45 N/A N/A N26         N/A
FORT JOHNSON     N/A     43  32  65 N18G29    30.28R
MOUNT PLEASANT FAIR     N/A N/A N/A N12G20    30.25R
JOHNS ISLAND   MOSUNNY   45  34  65 N20G25    30.25R
PINOPOLIS        N/A     43  34  70 NE21      30.15R
MONCKS CORNER  FAIR      41  32  70 N13G22    30.26R
SUMMERVILLE    FAIR      41  30  65 N13G18    30.28R
BEAUFORT MCAS  MOSUNNY   43  30  60 E15       30.24R
6HR MIN TEMP:  42; 6HR MAX TEMP:  54;

BEAUFORT ARPT  PTSUNNY   45  34  65 N23G30    30.25R
HILTON HEAD IS SUNNY     45  34  65 N12G21    30.23R
GEORGETOWN     NOT AVBL
WALTERBORO     SUNNY     41  32  70 NE8       30.28R
ORANGEBURG     SUNNY     40  24  53 NE16G25   30.27R WCI  31
6HR MIN TEMP:  38; 6HR MAX TEMP:  47;

BARNWELL       FAIR      41  28  60 NE17      30.29R
AIKEN          FAIR      37  32  81 NE12      30.31R WCI  30
MANNING        FAIR      41  21  45 N13G20    30.28R
KINGSTREE      NOT AVBL
COLUMBIA       MOSUNNY   41  25  53 NE12G20   30.29R
6HR MIN TEMP:  39; 6HR MAX TEMP:  45;

SUMTER         SUNNY     38  25  59 NE14      30.27R WCI  29
6HR MIN TEMP:  36; 6HR MAX TEMP:  42;

FLORENCE       SUNNY     39  26  59 N12       30.29R WCI  32
6HR MIN TEMP:  36; 6HR MAX TEMP:  43;

MYRTLE BEACH   PTSUNNY   43  30  61 N17       30.25R
N MYRTLE BEACH PTSUNNY   42  30  62 N14G21    30.25R
6HR MIN TEMP:  41; 6HR MAX TEMP:  45;


$$

GAZ063-065-086>088-099>101-113>116-118-119-134-136>141-150-161300-
...GEORGIA...

CITY           SKY/WX    TMP DP  RH WIND       PRES   REMARKS
SAVANNAH ARPT  MOSUNNY   44  30  57 NE14G22   30.23R
6HR MIN TEMP:  43; 6HR MAX TEMP:  48;

HUNTER AAF     SUNNY     44  32  62 VRB7G17   30.21R
6HR MIN TEMP:  43; 6HR MAX TEMP:  48;

FORT STEWART   SUNNY     43  35  74 NE15G21   30.21R
6HR MIN TEMP:  42; 6HR MAX TEMP:  46;

STATESBORO     NOT AVBL
SYLVANIA       SUNNY     44  29  57 NE9       30.27R
CLAXTON        FAIR      45  34  65 NE20G28   30.25R
THOMSON        SUNNY     38  31  76 NE10      30.33R WCI  31
AUGUSTA-BUSH   SUNNY     39  29  67 NE6       30.29R WCI  35
6HR MIN TEMP:  36; 6HR MAX TEMP:  43;

AUGUSTA-DANIEL SUNNY     40  28  62 NE10G18   30.28R WCI  33
SWAINSBORO     FAIR      39  32  75 NE7       30.26R WCI  34
VIDALIA        SUNNY     41  32  70 NE12      30.25R
ALMA           SUNNY     41  33  73 VRB6      30.21R
6HR MIN TEMP:  40; 6HR MAX TEMP:  44;

WAYCROSS       NOT AVBL
JESUP          FAIR      43  37  81 NE10G18   30.22R
BRUNSWICK      CLOUDY    45  41  87 N8        30.20R
SAINT SIMONS   CLOUDY    48  41  76 N14       30.18R
6HR MIN TEMP:  45; 6HR MAX TEMP:  48;


$$

SCZ027-028-034-036>038-045-046-048>050-GAZ119-141-161300-
...LAKE AND SUPPLEMENTAL COASTAL OBSERVATIONS...

STATION/POSITION TIME  TEMP    WIND        PRES    WAVE   SWELL
                       AIR SEA DIR/SP/G            HT/PER HT/PER/DIR
                 (UTC) (F)     (DEG/KT/KT) (MB)    (FT/S) (FT/S/D)
UPR LAKE MARION  NOT AVBL
WINYAH BAY       1200   41     350/ 11     1023.0S
LAKE MURRAY      1100   38      30/  3/  7 1024.7R
ACE BASIN NERRS  1200   41      20/  6     1023.0S
FORT PULASKI     1200   46 61   10/ 17/ 21 1023.6R
SAPELO ISLAND    1200   48      20/ 16     1021.0S

$$

ANZ086-088-AMZ330-350-352-354-374-454-470-161300-
...C-MAN AND BUOY OBSERVATIONS...

STATION/POSITION TIME  TEMP    WIND        PRES    WAVE   SWELL
                       AIR SEA DIR/SP/G            HT/PER HT/PER/DIR
                 (UTC) (F)     (DEG/KT/KT) (MB)    (FT/S) (FT/S/D)
FOLLY BEACH CMAN 1200   44     360/ 20/ 24 1024.2R
BUOY 41004       NOT AVBL
BUOY 41008       1200   52 63   40/ 23/ 29 1020.9R   7/ 6
5E ST. MARYS GA  1200      64                N/A     5/ 5
FRYING PAN BUOY  1200   47 65   20/ 27/ 35 1021.7R  11/ 7
BUOY 41025       NOT AVBL
CAPE LOOKOUT NC  1200   42     350/ 21/ 27 1023.2R
BUOY 41002       NOT AVBL
BUOY 41010       1200   71 76   10/ 17/ 21 1016.2R   8/ 7   2/360/13
BUOY 41012       NOT AVBL
ST AUGUSTINE FL  1200   49     320/  9/ 12 1020.2R


$$



USA.gov is the U.S. government's official web portal to all federal, state and local government web resources and services.